Location: Unspecified
(0.0000°N, 0.0000°E)
Time: 14:56:17
(UTC+00:00)

X-37B - Visible Passes

Search period start: 30 November 2021 00:00
Search period end: 10 December 2021 00:00
Orbit: 330 x 341 km, 45.0° (Epoch: 20 November)

Date Brightness Start Highest point End Pass type
(mag) Time Alt. Az. Time Alt. Az. Time Alt. Az.
30 Nov 3.2 04:57:40 10° NNE 04:58:46 12° NE 04:59:53 10° ENE visible
01 Dec 0.5 05:16:22 10° NW 05:19:09 67° NE 05:21:56 10° SE visible
02 Dec 3.5 04:04:47 11° ENE 04:04:47 11° ENE 04:05:14 10° ENE visible
03 Dec 0.7 04:24:52 59° E 04:24:52 59° E 04:27:22 10° SE visible
04 Dec 2.1 04:44:54 18° SW 04:44:57 18° SW 04:47:01 10° S visible
